,,,PA_Meas_PMT16A,,PR_Meas_QMR101_102,,RH_Meas_QMH101,,SR_Meas_QMS101,,TA_Meas_QMH101,,GenWind,,GenWind,
date,time,status,PA,status,PR,status,RH,status,SR,status,TA,status,DirAvg,status,SpdAvg,
2010-12-20, 00:00:04,VALID,1003.36,VALID,0,INVALID,163.716,VALID,0,VALID,23.7796,VALID,4,VALID,0.702734,
2010-12-20, 00:01:04,VALID,1003.38,VALID,0,INVALID,163.723,VALID,0,VALID,23.7778,VALID,4,VALID,0.666797,
2010-12-20, 00:02:04,VALID,1003.36,VALID,0,INVALID,163.716,VALID,0,VALID,23.7973,VALID,4,VALID,0.574609,
2010-12-20, 00:03:04,VALID,1003.35,VALID,0,INVALID,163.708,VALID,0,VALID,23.7796,VALID,4,VALID,0.735156,
2010-12-20, 00:04:04,VALID,1003.33,VALID,0,INVALID,163.708,VALID,0,VALID,23.7796,VALID,4,VALID,0.602344,
2010-12-20, 00:05:04,VALID,1003.27,VALID,0,INVALID,163.731,VALID,0,VALID,23.7796,VALID,3,VALID,0.809375,
2010-12-20, 00:06:04,VALID,1003.24,VALID,0,INVALID,163.723,VALID,0,VALID,23.7796,VALID,360,VALID,0.844922,
2010-12-20, 00:07:04,VALID,1003.21,VALID,0,INVALID,163.716,VALID,0,VALID,23.7601,VALID,351,VALID,0.772266,
2010-12-20, 00:08:04,VALID,1003.19,VALID,0,INVALID,163.716,VALID,0.100563,VALID,23.7796,VALID,351,VALID,0.776563,
2010-12-20, 00:09:04,VALID,1003.18,VALID,0,INVALID,163.731,VALID,0,VALID,23.7601,VALID,351,VALID,0.686328,
2010-12-20, 00:10:04,VALID,1003.11,VALID,0,INVALID,163.731,VALID,0,VALID,23.7619,VALID,351,VALID,0.763672,
2010-12-20, 00:11:04,VALID,1003.14,VALID,0,INVALID,163.739,VALID,0,VALID,23.7832,VALID,351,VALID,0.594531,
2010-12-20, 00:12:04,VALID,1003.1,VALID,0,INVALID,163.731,VALID,0,VALID,23.7619,VALID,351,VALID,0.610156,
2010-12-20, 00:13:04,VALID,1003.1,VALID,0,INVALID,163.716,VALID,0,VALID,23.7619,VALID,352,VALID,0.453516,
2010-12-20, 00:14:04,VALID,1003.05,VALID,0,INVALID,163.746,VALID,0,VALID,23.7619,VALID,352,VALID,0.398828,
2010-12-20, 00:15:04,VALID,1003.05,VALID,0,INVALID,163.731,VALID,0,VALID,23.7425,VALID,352,VALID,0.528125,
2010-12-20, 00:16:04,VALID,1003.04,VALID,0,INVALID,163.723,VALID,0,VALID,23.7425,VALID,352,VALID,0.523047,
2010-12-20, 00:17:04,VALID,1003.01,VALID,0,INVALID,163.723,VALID,0,VALID,23.7425,VALID,3,VALID,0.563281,
2010-12-20, 00:18:04,VALID,1002.96,VALID,0,INVALID,163.723,VALID,0,VALID,23.7425,VALID,10,VALID,0.466797,
2010-12-20, 00:19:04,VALID,1002.97,VALID,0,INVALID,163.731,VALID,0,VALID,23.7814,VALID,10,VALID,0.327734,
2010-12-20, 00:20:04,VALID,1002.94,VALID,0,INVALID,163.746,VALID,0,VALID,23.7814,VALID,10,VALID,0.271484,
2010-12-20, 00:21:04,VALID,1002.9,VALID,0,INVALID,163.739,VALID,0,VALID,23.7814,VALID,10,VALID,0,
2010-12-20, 00:22:04,VALID,1002.91,VALID,0,INVALID,163.754,VALID,0,VALID,23.7814,VALID,10,VALID,0,
2010-12-20, 00:23:04,VALID,1002.85,VALID,0,INVALID,163.746,VALID,0,VALID,23.7619,VALID,10,VALID,0,
2010-12-20, 00:24:04,VALID,1002.85,VALID,0,INVALID,163.716,VALID,0,VALID,23.723,VALID,10,VALID,0,
2010-12-20, 00:25:04,VALID,1002.8,VALID,0,INVALID,163.731,VALID,0,VALID,23.7212,VALID,10,VALID,0,
2010-12-20, 00:26:04,VALID,1002.78,VALID,0,INVALID,163.716,VALID,0,VALID,23.7212,VALID,10,VALID,0,
2010-12-20, 00:27:04,VALID,1002.74,VALID,0,INVALID,163.723,VALID,0,VALID,23.7601,VALID,9,VALID,0,
2010-12-20, 00:28:04,VALID,1002.71,VALID,0,INVALID,163.723,VALID,0,VALID,23.7601,VALID,359,VALID,0,
2010-12-20, 00:29:04,VALID,1002.69,VALID,0,INVALID,163.716,VALID,0.100563,VALID,23.7601,VALID,359,VALID,0,
2010-12-20, 00:30:04,VALID,1002.71,VALID,0,INVALID,163.693,VALID,0,VALID,23.7407,VALID,359,VALID,0,
2010-12-20, 00:31:04,VALID,1002.69,VALID,0,INVALID,163.708,VALID,0,VALID,23.7407,VALID,359,VALID,0,
2010-12-20, 00:32:04,VALID,1002.72,VALID,0,INVALID,163.708,VALID,0,VALID,23.7212,VALID,359,VALID,0,
2010-12-20, 00:33:04,VALID,1002.7,VALID,0,INVALID,163.754,VALID,0,VALID,23.7212,VALID,359,VALID,0,
2010-12-20, 00:34:04,VALID,1002.7,VALID,0,INVALID,163.739,VALID,0,VALID,23.7212,VALID,359,VALID,0,
2010-12-20, 00:35:04,VALID,1002.71,VALID,0,INVALID,163.716,VALID,0,VALID,23.7212,VALID,359,VALID,0,
2010-12-20, 00:36:04,VALID,1002.7,VALID,0,INVALID,163.723,VALID,0,VALID,23.7212,VALID,359,VALID,0,
2010-12-20, 00:37:04,VALID,1002.73,VALID,0,INVALID,163.731,VALID,0.100563,VALID,23.7017,VALID,359,VALID,0,
2010-12-20, 00:38:04,VALID,1002.67,VALID,0,INVALID,163.739,VALID,0,VALID,23.7017,VALID,359,VALID,0,
2010-12-20, 00:39:04,VALID,1002.67,VALID,0,INVALID,163.754,VALID,0,VALID,23.723,VALID,359,VALID,0,
2010-12-20, 00:40:04,VALID,1002.67,VALID,0,INVALID,163.754,VALID,0,VALID,23.723,VALID,359,VALID,0,
2010-12-20, 00:41:04,VALID,1002.66,VALID,0,INVALID,163.746,VALID,0,VALID,23.723,VALID,359,VALID,0,
2010-12-20, 00:42:04,VALID,1002.65,VALID,0,INVALID,163.731,VALID,0,VALID,23.723,VALID,359,VALID,0,
2010-12-20, 00:43:04,VALID,1002.62,VALID,0,INVALID,163.754,VALID,0,VALID,23.7425,VALID,359,VALID,0,
2010-12-20, 00:44:04,VALID,1002.65,VALID,0,INVALID,163.739,VALID,0,VALID,23.7425,VALID,359,VALID,0,
2010-12-20, 00:45:04,VALID,1002.61,VALID,0,INVALID,163.731,VALID,0,VALID,23.723,VALID,359,VALID,0,
2010-12-20, 00:46:04,VALID,1002.6,VALID,0,INVALID,163.723,VALID,0,VALID,23.723,VALID,359,VALID,0,
2010-12-20, 00:47:04,VALID,1002.58,VALID,0,INVALID,163.723,VALID,0,VALID,23.7443,VALID,359,VALID,0,
2010-12-20, 00:48:04,VALID,1002.54,VALID,0,INVALID,163.716,VALID,0,VALID,23.7425,VALID,359,VALID,0,
2010-12-20, 00:49:04,VALID,1002.51,VALID,0,INVALID,163.731,VALID,0,VALID,23.723,VALID,359,VALID,0,
2010-12-20, 00:50:04,VALID,1002.51,VALID,0,INVALID,163.716,VALID,0,VALID,23.723,VALID,359,VALID,0,
2010-12-20, 00:51:04,VALID,1002.48,VALID,0,INVALID,163.716,VALID,0,VALID,23.7017,VALID,359,VALID,0,
2010-12-20, 00:52:04,VALID,1002.45,VALID,0,INVALID,163.746,VALID,0,VALID,23.723,VALID,359,VALID,0,
2010-12-20, 00:53:04,VALID,1002.44,VALID,0,INVALID,163.731,VALID,0,VALID,23.7017,VALID,359,VALID,0,
2010-12-20, 00:54:04,VALID,1002.44,VALID,0,INVALID,163.746,VALID,0,VALID,23.7619,VALID,359,VALID,0,
2010-12-20, 00:55:04,VALID,1002.42,VALID,0,INVALID,163.723,VALID,0.100563,VALID,23.7583,VALID,359,VALID,0,
2010-12-20, 00:56:04,VALID,1002.43,VALID,0,INVALID,163.723,VALID,0.100563,VALID,23.7991,VALID,359,VALID,0,
2010-12-20, 00:57:04,VALID,1002.43,VALID,0,INVALID,163.731,VALID,0.100563,VALID,23.7796,VALID,359,VALID,0,
2010-12-20, 00:58:04,VALID,1002.42,VALID,0,INVALID,163.723,VALID,0.100563,VALID,23.7601,VALID,359,VALID,0,
2010-12-20, 00:59:04,VALID,1002.43,VALID,0,INVALID,163.723,VALID,0,VALID,23.7601,VALID,359,VALID,0,
2010-12-20, 01:00:04,VALID,1002.44,VALID,0,INVALID,163.723,VALID,0.100563,VALID,23.7407,VALID,359,VALID,0,
2010-12-20, 01:01:04,VALID,1002.42,VALID,0,INVALID,163.739,VALID,0.100563,VALID,23.7194,VALID,359,VALID,0,
2010-12-20, 01:02:04,VALID,1002.43,VALID,0,INVALID,163.723,VALID,0,VALID,23.7017,VALID,359,VALID,0,
2010-12-20, 01:03:04,VALID,1002.42,VALID,0,INVALID,163.731,VALID,0,VALID,23.6823,VALID,359,VALID,0,
2010-12-20, 01:04:04,VALID,1002.42,VALID,0,INVALID,163.716,VALID,0.100563,VALID,23.6416,VALID,359,VALID,0,
2010-12-20, 01:05:04,VALID,1002.4,VALID,0,INVALID,163.716,VALID,0,VALID,23.6416,VALID,359,VALID,0,
2010-12-20, 01:06:04,VALID,1002.4,VALID,0,INVALID,163.746,VALID,0.100563,VALID,23.6416,VALID,353,VALID,0,
2010-12-20, 01:07:04,VALID,1002.41,VALID,0,INVALID,163.723,VALID,0,VALID,23.6416,VALID,353,VALID,0,
2010-12-20, 01:08:04,VALID,1002.38,VALID,0,INVALID,163.731,VALID,0,VALID,23.6026,VALID,353,VALID,0,
2010-12-20, 01:09:04,VALID,1002.38,VALID,0,INVALID,163.739,VALID,0.100563,VALID,23.6026,VALID,353,VALID,0,
2010-12-20, 01:10:04,VALID,1002.38,VALID,0,INVALID,163.731,VALID,0,VALID,23.585,VALID,353,VALID,0.361328,
2010-12-20, 01:11:04,VALID,1002.36,VALID,0,INVALID,163.746,VALID,0,VALID,23.5868,VALID,353,VALID,0.327344,
2010-12-20, 01:12:04,VALID,1002.35,VALID,0,INVALID,163.746,VALID,0,VALID,23.6257,VALID,353,VALID,0.382031,
2010-12-20, 01:13:04,VALID,1002.34,VALID,0,INVALID,163.723,VALID,0,VALID,23.6044,VALID,353,VALID,0.388672,
2010-12-20, 01:14:04,VALID,1002.32,VALID,0,INVALID,163.716,VALID,0,VALID,23.5868,VALID,353,VALID,0.322266,
2010-12-20, 01:15:04,VALID,1002.33,VALID,0,INVALID,163.739,VALID,0,VALID,23.546,VALID,353,VALID,0.521484,
2010-12-20, 01:16:04,VALID,1002.29,VALID,0,INVALID,163.762,VALID,0,VALID,23.5655,VALID,353,VALID,0.551953,
2010-12-20, 01:17:04,VALID,1002.28,VALID,0,INVALID,163.739,VALID,0,VALID,23.5673,VALID,353,VALID,0.444141,
2010-12-20, 01:18:04,VALID,1002.24,VALID,0,INVALID,163.739,VALID,0,VALID,23.5655,VALID,353,VALID,0.36875,
2010-12-20, 01:19:04,VALID,1002.22,VALID,0,INVALID,163.746,VALID,0,VALID,23.5868,VALID,353,VALID,0.342187,
2010-12-20, 01:20:04,VALID,1002.21,VALID,0,INVALID,163.784,VALID,0,VALID,23.5655,VALID,353,VALID,0.342187,
2010-12-20, 01:21:04,VALID,1002.18,VALID,0,INVALID,163.731,VALID,0,VALID,23.6062,VALID,353,VALID,0.441016,
2010-12-20, 01:22:04,VALID,1002.16,VALID,0,INVALID,163.739,VALID,0,VALID,23.6044,VALID,353,VALID,0.391406,
2010-12-20, 01:23:04,VALID,1002.12,VALID,0,INVALID,163.716,VALID,0,VALID,23.6062,VALID,353,VALID,0.213281,
2010-12-20, 01:24:04,VALID,1002.1,VALID,0,INVALID,163.723,VALID,0,VALID,23.6257,VALID,353,VALID,0.16875,
2010-12-20, 01:25:04,VALID,1002.08,VALID,0,INVALID,163.746,VALID,0,VALID,23.6452,VALID,353,VALID,0.0644531,
2010-12-20, 01:26:04,VALID,1002.08,VALID,0,INVALID,163.739,VALID,0,VALID,23.6434,VALID,353,VALID,0.00585938,
2010-12-20, 01:27:04,VALID,1002.06,VALID,0,INVALID,163.739,VALID,0,VALID,23.6239,VALID,353,VALID,0.00117188,
2010-12-20, 01:28:04,VALID,1002.08,VALID,0,INVALID,163.746,VALID,0,VALID,23.6452,VALID,353,VALID,0.000390625,
2010-12-20, 01:29:04,VALID,1002.07,VALID,0,INVALID,163.746,VALID,0,VALID,23.6452,VALID,353,VALID,0,
2010-12-20, 01:30:04,VALID,1002.07,VALID,0,INVALID,163.762,VALID,0,VALID,23.6452,VALID,353,VALID,0,
2010-12-20, 01:31:04,VALID,1002.09,VALID,0,INVALID,163.731,VALID,0,VALID,23.6044,VALID,353,VALID,0.0390625,
2010-12-20, 01:32:04,VALID,1002.05,VALID,0,INVALID,163.731,VALID,0,VALID,23.6062,VALID,353,VALID,0,
2010-12-20, 01:33:04,VALID,1002.07,VALID,0,INVALID,163.746,VALID,0,VALID,23.5655,VALID,353,VALID,0,
2010-12-20, 01:34:04,VALID,1002.05,VALID,0,INVALID,163.731,VALID,0,VALID,23.5655,VALID,353,VALID,0.113672,
2010-12-20, 01:35:04,VALID,1002.06,VALID,0,INVALID,163.769,VALID,0,VALID,23.585,VALID,353,VALID,0,
2010-12-20, 01:36:04,VALID,1002.04,VALID,0,INVALID,163.746,VALID,0,VALID,23.6044,VALID,353,VALID,0,
2010-12-20, 01:37:04,VALID,1002.03,VALID,0,INVALID,163.746,VALID,0,VALID,23.6239,VALID,353,VALID,0,
2010-12-20, 01:38:04,VALID,1002.03,VALID,0,INVALID,163.708,VALID,0,VALID,23.6628,VALID,353,VALID,0,
2010-12-20, 01:39:04,VALID,1002.06,VALID,0,INVALID,163.731,VALID,0,VALID,23.6646,VALID,353,VALID,0,
2010-12-20, 01:40:04,VALID,1002.03,VALID,0,INVALID,163.754,VALID,0,VALID,23.6823,VALID,353,VALID,0,
2010-12-20, 01:41:04,VALID,1002.04,VALID,0,INVALID,163.739,VALID,0,VALID,23.6239,VALID,353,VALID,0,
2010-12-20, 01:42:04,VALID,1002.02,VALID,0,INVALID,163.746,VALID,0,VALID,23.6239,VALID,353,VALID,0,
2010-12-20, 01:43:04,VALID,1001.99,VALID,0,INVALID,163.746,VALID,0,VALID,23.6044,VALID,353,VALID,0,
2010-12-20, 01:44:04,VALID,1002.02,VALID,0,INVALID,163.723,VALID,0,VALID,23.6062,VALID,353,VALID,0,
2010-12-20, 01:45:04,VALID,1002.02,VALID,0,INVALID,163.746,VALID,0,VALID,23.546,VALID,353,VALID,0,
2010-12-20, 01:46:04,VALID,1002.02,VALID,0,INVALID,163.739,VALID,0,VALID,23.5266,VALID,353,VALID,0,
2010-12-20, 01:47:04,VALID,1002.01,VALID,0,INVALID,163.731,VALID,0,VALID,23.5071,VALID,353,VALID,0,
2010-12-20, 01:48:04,VALID,1002.01,VALID,0,INVALID,163.754,VALID,0,VALID,23.4877,VALID,353,VALID,0,
2010-12-20, 01:49:04,VALID,1002,VALID,0,INVALID,163.746,VALID,0,VALID,23.4682,VALID,353,VALID,0.483203,
2010-12-20, 01:50:04,VALID,1002,VALID,0,INVALID,163.777,VALID,0,VALID,23.4293,VALID,353,VALID,0.310547,
2010-12-20, 01:51:04,VALID,1001.97,VALID,0,INVALID,163.762,VALID,0,VALID,23.4098,VALID,353,VALID,0.453516,
2010-12-20, 01:52:04,VALID,1001.97,VALID,0,INVALID,163.777,VALID,0,VALID,23.3709,VALID,353,VALID,0.408984,
2010-12-20, 01:53:04,VALID,1001.94,VALID,0,INVALID,163.762,VALID,0,VALID,23.332,VALID,353,VALID,0.228516,
2010-12-20, 01:54:04,VALID,1001.94,VALID,0,INVALID,163.769,VALID,0,VALID,23.332,VALID,353,VALID,0.158984,
2010-12-20, 01:55:04,VALID,1001.93,VALID,0,INVALID,163.731,VALID,0,VALID,23.332,VALID,353,VALID,0.0964844,
2010-12-20, 01:56:04,VALID,1001.93,VALID,0,INVALID,163.792,VALID,0,VALID,23.332,VALID,353,VALID,0.115625,
2010-12-20, 01:57:04,VALID,1001.92,VALID,0,INVALID,163.754,VALID,0,VALID,23.332,VALID,353,VALID,0,
2010-12-20, 01:58:04,VALID,1001.94,VALID,0,INVALID,163.769,VALID,0,VALID,23.3337,VALID,353,VALID,0,
2010-12-20, 01:59:04,VALID,1001.92,VALID,0,INVALID,163.731,VALID,0,VALID,23.332,VALID,353,VALID,0,
2010-12-20, 02:00:04,VALID,1001.93,VALID,0,INVALID,163.754,VALID,0,VALID,23.332,VALID,353,VALID,0.0160156,
2010-12-20, 02:01:04,VALID,1001.92,VALID,0,INVALID,163.723,VALID,0,VALID,23.3709,VALID,353,VALID,0.169141,
2010-12-20, 02:02:04,VALID,1001.93,VALID,0,INVALID,163.739,VALID,0,VALID,23.3709,VALID,353,VALID,0.402344,
2010-12-20, 02:03:04,VALID,1001.91,VALID,0,INVALID,163.762,VALID,0,VALID,23.3709,VALID,353,VALID,0.327734,
2010-12-20, 02:04:04,VALID,1001.91,VALID,0,INVALID,163.739,VALID,0,VALID,23.3514,VALID,353,VALID,0.421094,
2010-12-20, 02:05:04,VALID,1001.89,VALID,0,INVALID,163.746,VALID,0,VALID,23.2913,VALID,353,VALID,0.458594,
2010-12-20, 02:06:04,VALID,1001.85,VALID,0,INVALID,163.769,VALID,0,VALID,23.2931,VALID,353,VALID,0.458984,
2010-12-20, 02:07:04,VALID,1001.83,VALID,0,INVALID,163.762,VALID,0,VALID,23.2736,VALID,353,VALID,0.688281,
2010-12-20, 02:08:04,VALID,1001.78,VALID,0,INVALID,163.746,VALID,0,VALID,23.2931,VALID,353,VALID,0.489062,
2010-12-20, 02:09:04,VALID,1001.75,VALID,0,INVALID,163.777,VALID,0,VALID,23.2931,VALID,353,VALID,0.546875,
2010-12-20, 02:10:04,VALID,1001.74,VALID,0,INVALID,163.769,VALID,0,VALID,23.2948,VALID,353,VALID,0.460938,
2010-12-20, 02:11:04,VALID,1001.71,VALID,0,INVALID,163.731,VALID,0,VALID,23.2931,VALID,353,VALID,0.468359,
2010-12-20, 02:12:04,VALID,1001.7,VALID,0,INVALID,163.754,VALID,0,VALID,23.355,VALID,353,VALID,0.340625,
2010-12-20, 02:13:04,VALID,1001.66,VALID,0,INVALID,163.746,VALID,0,VALID,23.3143,VALID,353,VALID,0.351563,
2010-12-20, 02:14:04,VALID,1001.66,VALID,0,INVALID,163.746,VALID,0,VALID,23.3337,VALID,353,VALID,0.14375,
2010-12-20, 02:15:04,VALID,1001.64,VALID,0,INVALID,163.746,VALID,0,VALID,23.3532,VALID,353,VALID,0.0871094,
2010-12-20, 02:16:04,VALID,1001.67,VALID,0,INVALID,163.762,VALID,0,VALID,23.332,VALID,353,VALID,0,
2010-12-20, 02:17:04,VALID,1001.68,VALID,0,INVALID,163.777,VALID,0,VALID,23.332,VALID,353,VALID,0,
2010-12-20, 02:18:04,VALID,1001.67,VALID,0,INVALID,163.746,VALID,0,VALID,23.3125,VALID,353,VALID,0,
2010-12-20, 02:19:04,VALID,1001.65,VALID,0,INVALID,163.762,VALID,0,VALID,23.3125,VALID,353,VALID,0,
2010-12-20, 02:20:04,VALID,1001.65,VALID,0,INVALID,163.746,VALID,0,VALID,23.3337,VALID,353,VALID,0.170312,
2010-12-20, 02:21:04,VALID,1001.66,VALID,0,INVALID,163.769,VALID,0,VALID,23.332,VALID,353,VALID,0.0335938,
2010-12-20, 02:22:04,VALID,1001.64,VALID,0,INVALID,163.746,VALID,0,VALID,23.3337,VALID,353,VALID,0.235547,
2010-12-20, 02:23:04,VALID,1001.61,VALID,0,INVALID,163.754,VALID,0,VALID,23.3125,VALID,353,VALID,0.00429688,
2010-12-20, 02:24:04,VALID,1001.59,VALID,0,INVALID,163.754,VALID,0,VALID,23.3125,VALID,353,VALID,0,
2010-12-20, 02:25:04,VALID,1001.59,VALID,0,INVALID,163.739,VALID,0,VALID,23.3337,VALID,353,VALID,0.149219,
2010-12-20, 02:26:04,VALID,1001.59,VALID,0,INVALID,163.762,VALID,0,VALID,23.3125,VALID,353,VALID,0,
2010-12-20, 02:27:04,VALID,1001.61,VALID,0,INVALID,163.746,VALID,0,VALID,23.3125,VALID,353,VALID,0,
2010-12-20, 02:28:04,VALID,1001.6,VALID,0,INVALID,163.754,VALID,0,VALID,23.3532,VALID,353,VALID,0,
2010-12-20, 02:29:04,VALID,1001.59,VALID,0,INVALID,163.762,VALID,0,VALID,23.332,VALID,353,VALID,0,
2010-12-20, 02:30:04,VALID,1001.59,VALID,0,INVALID,163.754,VALID,0,VALID,23.332,VALID,353,VALID,0,
2010-12-20, 02:31:04,VALID,1001.57,VALID,0,INVALID,163.762,VALID,0,VALID,23.3125,VALID,353,VALID,0,
2010-12-20, 02:32:04,VALID,1001.56,VALID,0,INVALID,163.777,VALID,0,VALID,23.2948,VALID,353,VALID,0,
2010-12-20, 02:33:04,VALID,1001.55,VALID,0,INVALID,163.769,VALID,0,VALID,23.2931,VALID,353,VALID,0,
2010-12-20, 02:34:04,VALID,1001.55,VALID,0,INVALID,163.762,VALID,0,VALID,23.2931,VALID,353,VALID,0.355078,
2010-12-20, 02:35:04,VALID,1001.55,VALID,0,INVALID,163.777,VALID,0,VALID,23.2736,VALID,353,VALID,0.442578,
2010-12-20, 02:36:04,VALID,1001.54,VALID,0,INVALID,163.784,VALID,0,VALID,23.2736,VALID,353,VALID,0.260938,
2010-12-20, 02:37:04,VALID,1001.53,VALID,0,INVALID,163.777,VALID,0,VALID,23.2736,VALID,353,VALID,0.288672,
2010-12-20, 02:38:04,VALID,1001.55,VALID,0,INVALID,163.762,VALID,0,VALID,23.2736,VALID,353,VALID,0.184766,
2010-12-20, 02:39:04,VALID,1001.51,VALID,0,INVALID,163.769,VALID,0,VALID,23.3143,VALID,353,VALID,0,
2010-12-20, 02:40:04,VALID,1001.52,VALID,0,INVALID,163.784,VALID,0,VALID,23.3532,VALID,353,VALID,0,
2010-12-20, 02:41:04,VALID,1001.53,VALID,0,INVALID,163.754,VALID,0,VALID,23.3514,VALID,353,VALID,0,
2010-12-20, 02:42:04,VALID,1001.53,VALID,0,INVALID,163.762,VALID,0,VALID,23.3514,VALID,353,VALID,0,
2010-12-20, 02:43:04,VALID,1001.52,VALID,0,INVALID,163.731,VALID,0,VALID,23.3709,VALID,353,VALID,0,
2010-12-20, 02:44:04,VALID,1001.57,VALID,0,INVALID,163.746,VALID,0,VALID,23.3904,VALID,353,VALID,0,
2010-12-20, 02:45:04,VALID,1001.52,VALID,0,INVALID,163.746,VALID,0,VALID,23.4293,VALID,354,VALID,0,
2010-12-20, 02:46:04,VALID,1001.54,VALID,0,INVALID,163.769,VALID,0,VALID,23.4293,VALID,354,VALID,0,
2010-12-20, 02:47:04,VALID,1001.54,VALID,0,INVALID,163.739,VALID,0,VALID,23.47,VALID,354,VALID,0.217969,
2010-12-20, 02:48:04,VALID,1001.56,VALID,0,INVALID,163.746,VALID,0,VALID,23.4877,VALID,354,VALID,0,
2010-12-20, 02:49:04,VALID,1001.56,VALID,0,INVALID,163.723,VALID,0,VALID,23.546,VALID,354,VALID,0.199219,
2010-12-20, 02:50:04,VALID,1001.55,VALID,0,INVALID,163.723,VALID,0,VALID,23.5868,VALID,6,VALID,0.386719,
2010-12-20, 02:51:04,VALID,1001.53,VALID,0,INVALID,163.746,VALID,0,VALID,23.585,VALID,6,VALID,0.35,
2010-12-20, 02:52:04,VALID,1001.55,VALID,0,INVALID,163.777,VALID,0,VALID,23.6044,VALID,6,VALID,0.428125,
2010-12-20, 02:53:04,VALID,1001.54,VALID,0,INVALID,163.777,VALID,0,VALID,23.6062,VALID,6,VALID,0.359766,
2010-12-20, 02:54:04,VALID,1001.53,VALID,0,INVALID,163.731,VALID,0,VALID,23.5868,VALID,6,VALID,0.191797,
2010-12-20, 02:55:04,VALID,1001.52,VALID,0,INVALID,163.739,VALID,0,VALID,23.5868,VALID,6,VALID,0.175781,
2010-12-20, 02:56:04,VALID,1001.5,VALID,0,INVALID,163.754,VALID,0,VALID,23.5655,VALID,6,VALID,0.184375,
2010-12-20, 02:57:04,VALID,1001.49,VALID,0,INVALID,163.723,VALID,0,VALID,23.5673,VALID,6,VALID,0.177344,
2010-12-20, 02:58:04,VALID,1001.49,VALID,0,INVALID,163.723,VALID,0,VALID,23.5673,VALID,6,VALID,0.0832031,
2010-12-20, 02:59:04,VALID,1001.5,VALID,0,INVALID,163.746,VALID,0,VALID,23.5478,VALID,6,VALID,0.0328125,
2010-12-20, 03:00:04,VALID,1001.48,VALID,0,INVALID,163.739,VALID,0,VALID,23.5089,VALID,6,VALID,0,
2010-12-20, 03:01:04,VALID,1001.49,VALID,0,INVALID,163.739,VALID,0,VALID,23.5089,VALID,6,VALID,0,
2010-12-20, 03:02:04,VALID,1001.51,VALID,0,INVALID,163.746,VALID,0,VALID,23.5089,VALID,6,VALID,0,
2010-12-20, 03:03:04,VALID,1001.5,VALID,0,INVALID,163.739,VALID,0,VALID,23.4894,VALID,6,VALID,0,
2010-12-20, 03:04:04,VALID,1001.52,VALID,0,INVALID,163.769,VALID,0,VALID,23.4487,VALID,6,VALID,0,
2010-12-20, 03:05:04,VALID,1001.5,VALID,0,INVALID,163.777,VALID,0,VALID,23.4293,VALID,6,VALID,0,
2010-12-20, 03:06:04,VALID,1001.51,VALID,0,INVALID,163.716,VALID,0,VALID,23.4311,VALID,6,VALID,0,
2010-12-20, 03:07:04,VALID,1001.5,VALID,0,INVALID,163.754,VALID,0,VALID,23.3921,VALID,6,VALID,0.0125,
2010-12-20, 03:08:04,VALID,1001.52,VALID,0,INVALID,163.754,VALID,0,VALID,23.4134,VALID,6,VALID,0.545703,
2010-12-20, 03:09:04,VALID,1001.52,VALID,0,INVALID,163.754,VALID,0,VALID,23.3727,VALID,6,VALID,0.5375,
2010-12-20, 03:10:04,VALID,1001.5,VALID,0,INVALID,163.746,VALID,0,VALID,23.3904,VALID,6,VALID,0.580859,
2010-12-20, 03:11:04,VALID,1001.52,VALID,0,INVALID,163.769,VALID,0,VALID,23.332,VALID,6,VALID,0.524609,
2010-12-20, 03:12:04,VALID,1001.51,VALID,0,INVALID,163.754,VALID,0,VALID,23.3514,VALID,6,VALID,0.430078,
2010-12-20, 03:13:04,VALID,1001.48,VALID,0,INVALID,163.723,VALID,0,VALID,23.332,VALID,6,VALID,0.417578,
2010-12-20, 03:14:04,VALID,1001.48,VALID,0,INVALID,163.792,VALID,0,VALID,23.3107,VALID,6,VALID,0.497266,
2010-12-20, 03:15:04,VALID,1001.48,VALID,0,INVALID,163.754,VALID,0.100563,VALID,23.3514,VALID,6,VALID,0.326953,
2010-12-20, 03:16:04,VALID,1001.46,VALID,0,INVALID,163.731,VALID,0,VALID,23.332,VALID,6,VALID,0.269531,
2010-12-20, 03:17:04,VALID,1001.46,VALID,0,INVALID,163.762,VALID,0,VALID,23.3125,VALID,6,VALID,0.426562,
2010-12-20, 03:18:04,VALID,1001.44,VALID,0,INVALID,163.754,VALID,0,VALID,23.2931,VALID,6,VALID,0.446484,
2010-12-20, 03:19:04,VALID,1001.45,VALID,0,INVALID,163.754,VALID,0,VALID,23.2931,VALID,6,VALID,0.412891,
2010-12-20, 03:20:04,VALID,1001.47,VALID,0,INVALID,163.762,VALID,0,VALID,23.2736,VALID,6,VALID,0.336719,
2010-12-20, 03:21:04,VALID,1001.49,VALID,0,INVALID,163.739,VALID,0,VALID,23.2541,VALID,6,VALID,0.304688,
2010-12-20, 03:22:04,VALID,1001.47,VALID,0,INVALID,163.739,VALID,0,VALID,23.2347,VALID,6,VALID,0.371094,
2010-12-20, 03:23:04,VALID,1001.49,VALID,0,INVALID,163.754,VALID,0.100563,VALID,23.2541,VALID,6,VALID,0.450391,
2010-12-20, 03:24:04,VALID,1001.46,VALID,0,INVALID,163.762,VALID,0.100563,VALID,23.2524,VALID,7,VALID,0.523047,
2010-12-20, 03:25:04,VALID,1001.49,VALID,0,INVALID,163.746,VALID,0,VALID,23.2541,VALID,8,VALID,0.433594,
2010-12-20, 03:26:04,VALID,1001.5,VALID,0,INVALID,163.762,VALID,0,VALID,23.2754,VALID,8,VALID,0.449219,
2010-12-20, 03:27:04,VALID,1001.49,VALID,0,INVALID,163.739,VALID,0,VALID,23.2559,VALID,8,VALID,0.335938,
2010-12-20, 03:28:04,VALID,1001.49,VALID,0,INVALID,163.746,VALID,0,VALID,23.2559,VALID,8,VALID,0.381641,
2010-12-20, 03:29:04,VALID,1001.51,VALID,0,INVALID,163.777,VALID,0,VALID,23.2754,VALID,8,VALID,0.307813,
2010-12-20, 03:30:04,VALID,1001.49,VALID,0,INVALID,163.746,VALID,0,VALID,23.2559,VALID,8,VALID,0.330078,
2010-12-20, 03:31:04,VALID,1001.52,VALID,0,INVALID,163.762,VALID,0,VALID,23.2754,VALID,8,VALID,0.364062,
2010-12-20, 03:32:04,VALID,1001.53,VALID,0,INVALID,163.784,VALID,0,VALID,23.2559,VALID,8,VALID,0.31875,
2010-12-20, 03:33:04,VALID,1001.53,VALID,0,INVALID,163.746,VALID,0,VALID,23.2364,VALID,8,VALID,0.436328,
2010-12-20, 03:34:04,VALID,1001.5,VALID,0,INVALID,163.777,VALID,0,VALID,23.2559,VALID,8,VALID,0.521484,
2010-12-20, 03:35:04,VALID,1001.53,VALID,0,INVALID,163.754,VALID,0,VALID,23.2948,VALID,8,VALID,0.48125,
2010-12-20, 03:36:04,VALID,1001.53,VALID,0,INVALID,163.739,VALID,0,VALID,23.3143,VALID,8,VALID,0.526172,
2010-12-20, 03:37:04,VALID,1001.51,VALID,0,INVALID,163.762,VALID,0,VALID,23.3143,VALID,8,VALID,0.455078,
2010-12-20, 03:38:04,VALID,1001.53,VALID,0,INVALID,163.762,VALID,0,VALID,23.2931,VALID,8,VALID,0.565234,
2010-12-20, 03:39:04,VALID,1001.52,VALID,0,INVALID,163.754,VALID,0,VALID,23.2931,VALID,8,VALID,0.445313,
2010-12-20, 03:40:04,VALID,1001.51,VALID,0,INVALID,163.769,VALID,0,VALID,23.3125,VALID,8,VALID,0.34375,
2010-12-20, 03:41:04,VALID,1001.52,VALID,0,INVALID,163.769,VALID,0,VALID,23.3727,VALID,8,VALID,0.198047,
2010-12-20, 03:42:04,VALID,1001.52,VALID,0,INVALID,163.746,VALID,0,VALID,23.3355,VALID,8,VALID,0.207422,
2010-12-20, 03:43:04,VALID,1001.55,VALID,0,INVALID,163.754,VALID,0,VALID,23.3143,VALID,8,VALID,0.182422,
2010-12-20, 03:44:04,VALID,1001.54,VALID,0,INVALID,163.762,VALID,0,VALID,23.3143,VALID,8,VALID,0.158984,
2010-12-20, 03:45:04,VALID,1001.58,VALID,0,INVALID,163.731,VALID,0,VALID,23.3532,VALID,8,VALID,0.170703,
2010-12-20, 03:46:04,VALID,1001.59,VALID,0,INVALID,163.769,VALID,0,VALID,23.355,VALID,8,VALID,0.248047,